COSMOS 1536

Last updated on Thu Nov 21 2024 00:02:12 GMT+0000 (Coordinated Universal Time)

1 14699U 84013A 24325.15300304 .00009928 00000+0 51717-3 0 9998 2 14699 82.5498 216.6479 0018431 132.1041 228.1763 15.15724814200538
UTC large
Height (km)
Speed (km/s)
/
Latitude / Longitude
Inclination (degrees)
Orbital Period (minutes)
Azimuth
Elevation
Range (km)
Doppler Factor

Next 0 passes for location: London (51.5072 / 0.1276)

Sorry there are no passes over London.